| time (UTC) | temp F | wind direction | speed MPH | gust MPH | rain 1hr in | rain 24hr in | rain mn in | humidity % | barometer mb |
| 20260505014215 | 68 | 173 | 2.0 | 6.0 | 0.00 | 0.00 | 0.00 | 35 | 1016.9 |
| 20260505013216 | 69 | 164 | 5.0 | 7.0 | 0.00 | 0.00 | 0.00 | 35 | 1016.7 |
| 20260505012216 | 69 | 167 | 3.0 | 8.0 | 0.00 | 0.00 | 0.00 | 34 | 1016.6 |
| 20260505011215 | 69 | 166 | 3.0 | 8.0 | 0.00 | 0.00 | 0.00 | 34 | 1016.5 |
| 20260505010216 | 70 | 159 | 3.0 | 8.0 | 0.00 | 0.00 | 0.00 | 33 | 1016.3 |
| 20260505005215 | 70 | 175 | 5.0 | 7.0 | 0.00 | 0.00 | 0.00 | 33 | 1016.1 |
| 20260505003216 | 71 | 151 | 6.0 | 10.0 | 0.00 | 0.00 | 0.00 | 33 | 1015.9 |
| 20260505002256 | 71 | 156 | 5.0 | 12.0 | 0.00 | 0.00 | 0.00 | 33 | 1015.7 |
| 20260505000215 | 72 | 167 | 4.0 | 9.0 | 0.00 | 0.00 | 0.00 | 33 | 1015.5 |
| 20260504235215 | 73 | 160 | 7.0 | 15.0 | 0.00 | 0.00 | 0.00 | 31 | 1015.4 |
| 20260504234215 | 73 | 191 | 2.0 | 7.0 | 0.00 | 0.00 | 0.00 | 30 | 1015.2 |
| 20260504233215 | 73 | 180 | 5.0 | 13.0 | 0.00 | 0.00 | 0.00 | 30 | 1015.2 |
| 20260504232235 | 73 | 160 | 8.0 | 13.0 | 0.00 | 0.00 | 0.00 | 30 | 1015.2 |
| 20260504231235 | 74 | 164 | 4.0 | 11.0 | 0.00 | 0.00 | 0.00 | 30 | 1015.1 |
| 20260504230235 | 74 | 175 | 4.0 | 12.0 | 0.00 | 0.00 | 0.00 | 30 | 1015.1 |
| 20260504225215 | 74 | 172 | 2.0 | 6.0 | 0.00 | 0.00 | 0.00 | 28 | 1015.1 |
| 20260504224236 | 74 | 186 | 4.0 | 11.0 | 0.00 | 0.00 | 0.00 | 27 | 1015.2 |
| 20260504223315 | 75 | 194 | 2.0 | 5.0 | 0.00 | 0.00 | 0.00 | 27 | 1015.1 |
| 20260504222235 | 75 | 184 | 2.0 | 9.0 | 0.00 | 0.00 | 0.00 | 26 | 1015.2 |
| 20260504221215 | 75 | 178 | 5.0 | 9.0 | 0.00 | 0.00 | 0.00 | 24 | 1015.3 |
| 20260504220215 | 76 | 182 | 6.0 | 10.0 | 0.00 | 0.00 | 0.00 | 24 | 1015.4 |
| 20260504215215 | 76 | 161 | 6.0 | 10.0 | 0.00 | 0.00 | 0.00 | 25 | 1015.4 |
| 20260504213215 | 76 | 158 | 8.0 | 15.0 | 0.00 | 0.00 | 0.00 | 24 | 1015.3 |
| 20260504212235 | 76 | 253 | 2.0 | 5.0 | 0.00 | 0.00 | 0.00 | 25 | 1015.5 |
| 20260504211215 | 77 | 236 | 3.0 | 9.0 | 0.00 | 0.00 | 0.00 | 24 | 1015.5 |
| 20260504210235 | 76 | 143 | 0.0 | 10.0 | 0.00 | 0.00 | 0.00 | 27 | 1015.3 |
| 20260504205215 | 76 | 190 | 2.0 | 7.0 | 0.00 | 0.00 | 0.00 | 26 | 1015.5 |
| 20260504204235 | 76 | 252 | 1.0 | 8.0 | 0.00 | 0.00 | 0.00 | 24 | 1015.8 |
| 20260504203215 | 76 | 151 | 6.0 | 12.0 | 0.00 | 0.00 | 0.00 | 25 | 1015.9 |
| 20260504202215 | 76 | 216 | 2.0 | 8.0 | 0.00 | 0.00 | 0.00 | 23 | 1016.2 |
| 20260504201215 | 75 | 195 | 2.0 | 6.0 | 0.00 | 0.00 | 0.00 | 24 | 1016.2 |
| 20260504200235 | 76 | 192 | 4.0 | 10.0 | 0.00 | 0.00 | 0.00 | 24 | 1016.3 |
| 20260504195215 | 75 | 250 | 1.0 | 10.0 | 0.00 | 0.00 | 0.00 | 25 | 1016.5 |
| 20260504194257 | 76 | 235 | 4.0 | 8.0 | 0.00 | 0.00 | 0.00 | 23 | 1016.6 |
| 20260504193217 | 76 | 158 | 4.0 | 8.0 | 0.00 | 0.00 | 0.00 | 27 | 1016.6 |
| 20260504192237 | 75 | 131 | 4.0 | 9.0 | 0.00 | 0.00 | 0.00 | 23 | 1016.8 |
| 20260504191237 | 75 | 158 | 4.0 | 11.0 | 0.00 | 0.00 | 0.00 | 27 | 1016.9 |
| 20260504190237 | 74 | 180 | 2.0 | 6.0 | 0.00 | 0.00 | 0.00 | 27 | 1016.9 |
| 20260504185237 | 73 | 169 | 3.0 | 9.0 | 0.00 | 0.00 | 0.00 | 28 | 1017.1 |
| 20260504184217 | 74 | 207 | 2.0 | 6.0 | 0.00 | 0.00 | 0.00 | 27 | 1017.2 |
| 20260504182237 | 74 | 185 | 2.0 | 6.0 | 0.00 | 0.00 | 0.00 | 28 | 1017.4 |
| 20260504181237 | 74 | 117 | 1.0 | 5.0 | 0.00 | 0.00 | 0.00 | 28 | 1017.4 |
| 20260504175217 | 75 | 180 | 2.0 | 8.0 | 0.00 | 0.00 | 0.00 | 28 | 1017.8 |
| 20260504174216 | 73 | 174 | 1.0 | 3.0 | 0.00 | 0.00 | 0.00 | 30 | 1017.8 |
| 20260504173237 | 72 | 153 | 5.0 | 10.0 | 0.00 | 0.00 | 0.00 | 29 | 1017.8 |
| 20260504171217 | 74 | 287 | 0.0 | 2.0 | 0.00 | 0.00 | 0.00 | 28 | 1018.1 |
| 20260504170217 | 74 | 277 | 0.0 | 4.0 | 0.00 | 0.00 | 0.00 | 28 | 1018.0 |
| 20260504160216 | 70 | 185 | 3.0 | 7.0 | 0.00 | 0.00 | 0.00 | 33 | 1019.4 |
| 20260504150216 | 68 | 100 | 0.0 | 4.0 | 0.00 | 0.00 | 0.00 | 36 | 1019.4 |
| 20260504141216 | 64 | 196 | 1.0 | 3.0 | 0.00 | 0.00 | 0.00 | 53 | 1019.4 |
| 20260504140236 | 63 | 198 | 0.0 | 2.0 | 0.00 | 0.00 | 0.00 | 57 | 1019.5 |
| 20260504130216 | 55 | 166 | 1.0 | 2.0 | 0.00 | 0.00 | 0.00 | 68 | 1019.4 |
| 20260504120236 | 50 | 158 | 1.0 | 2.0 | 0.00 | 0.00 | 0.00 | 75 | 1018.9 |
| 20260504110216 | 47 | 173 | 1.0 | 4.0 | 0.00 | 0.00 | 0.00 | 79 | 1018.9 |
| 20260504100215 | 48 | 179 | 1.0 | 3.0 | 0.00 | 0.00 | 0.00 | 75 | 1018.9 |
| 20260504081255 | 50 | 142 | 4.0 | 7.0 | 0.00 | 0.00 | 0.00 | 72 | 1018.4 |
| 20260504080216 | 50 | 156 | 2.0 | 4.0 | 0.00 | 0.00 | 0.00 | 71 | 1018.3 |
| 20260504070215 | 51 | 178 | 1.0 | 4.0 | 0.00 | 0.00 | 0.00 | 67 | 1018.7 |
| 20260504060215 | 53 | 154 | 2.0 | 4.0 | 0.00 | 0.00 | 0.00 | 64 | 1019.0 |
| 20260504050255 | 54 | 160 | 4.0 | 6.0 | 0.00 | 0.00 | 0.00 | 62 | 1018.9 |
| 20260504045235 | 54 | 164 | 3.0 | 6.0 | 0.00 | 0.00 | 0.00 | 61 | 1019.1 |
| 20260504044235 | 54 | 156 | 2.0 | 5.0 | 0.00 | 0.00 | 0.00 | 61 | 1019.2 |
| 20260504043315 | 54 | 157 | 2.0 | 5.0 | 0.00 | 0.00 | 0.00 | 60 | 1019.2 |
| 20260504042215 | 55 | 169 | 2.0 | 4.0 | 0.00 | 0.00 | 0.00 | 60 | 1019.3 |
| 20260504041215 | 55 | 171 | 2.0 | 4.0 | 0.00 | 0.00 | 0.00 | 60 | 1019.3 |
| 20260504040215 | 55 | 164 | 2.0 | 4.0 | 0.00 | 0.00 | 0.00 | 59 | 1019.3 |
| 20260504035236 | 55 | 164 | 1.0 | 6.0 | 0.00 | 0.00 | 0.00 | 59 | 1019.3 |
| 20260504034216 | 55 | 167 | 1.0 | 3.0 | 0.00 | 0.00 | 0.00 | 58 | 1019.5 |
| 20260504033236 | 56 | 185 | 2.0 | 6.0 | 0.00 | 0.00 | 0.00 | 57 | 1019.4 |
| 20260504032256 | 56 | 189 | 1.0 | 4.0 | 0.00 | 0.00 | 0.00 | 57 | 1019.4 |
| 20260504031256 | 56 | 193 | 3.0 | 7.0 | 0.00 | 0.00 | 0.00 | 56 | 1019.4 |
| 20260504030236 | 57 | 169 | 2.0 | 7.0 | 0.00 | 0.00 | 0.00 | 55 | 1019.3 |
| 20260504025216 | 57 | 183 | 1.0 | 6.0 | 0.00 | 0.00 | 0.00 | 54 | 1019.4 |
| 20260504024216 | 57 | 173 | 4.0 | 6.0 | 0.00 | 0.00 | 0.00 | 54 | 1019.3 |
| 20260504023216 | 57 | 164 | 3.0 | 8.0 | 0.00 | 0.00 | 0.00 | 53 | 1019.2 |
| 20260504022216 | 58 | 170 | 2.0 | 4.0 | 0.00 | 0.00 | 0.00 | 52 | 1019.1 |
| 20260504021216 | 58 | 158 | 1.0 | 7.0 | 0.00 | 0.00 | 0.00 | 51 | 1019.0 |
| 20260504020236 | 58 | 166 | 2.0 | 7.0 | 0.00 | 0.00 | 0.00 | 50 | 1018.8 |
| 20260504015256 | 59 | 170 | 3.0 | 8.0 | 0.00 | 0.00 | 0.00 | 49 | 1018.6 |